Vertical_Velocity
-1 -1 -0 -2 -0 -2 -0 -1 -2 -3 -1 -2 -1 -3 -1 -3 -2 1 2 -3 2 -2 -1 -4 -5 -3 -11 5 -3 -91 46 -5 10 -9 3 4 2 -8 -7 6 -10 13 2 -5 -2
-1 -1 -1 0 -1 -0 -1 -1 -2 -2 -1 -1 -1 -2 -1 -2 -3 -1 -3 -1 -0 -2 -3 -5 23 -6 29 1 -13 -29 5 -1 2 10 -5 -5 5 -8 1 -0 1 -2 -1 -2 -1
-1 -1 -1 -1 -0 -1 -1 -1 -0 -2 -2 -1 -1 -1 -1 -1 -3 13 -3 -3 -2 0 -2 1 -8 -16 23 17 -17 11 -10 -0 3 0 6 -7 -3 -3 -11 2 1 -3 -2 -2 -2
-0 -1 -1 -1 -2 -0 -1 -1 -1 -2 -2 -3 -1 -1 -0 -1 5 -11 -6 -3 -2 1 -7 8 -7 -1 9 24 -23 30 -12 -6 -3 2 -4 2 -9 5 12 0 -5 -1 -0 -0 1
-1 -1 -1 -1 -0 -1 -1 -2 -1 -2 -3 -2 -1 -1 0 1 17 8 -9 -3 -3 -2 -5 14 14 -3 22 -9 8 3 -4 -3 -2 -5 -1 -5 4 -7 -0 1 -4 -2 -1 -1 4
-1 -0 -2 -1 -1 -1 -0 -1 -1 -2 -3 -0 0 -2 -1 -4 4 0 -9 -2 -2 -4 14 5 26 -6 -4 -14 29 -11 -2 -3 0 -1 -10 2 -8 6 1 -1 -1 -2 -0 0 -3
-2 -2 -2 -1 -2 -0 -2 1 -2 -2 -2 -0 1 -1 -4 20 -9 -1 -4 1 -0 -4 24 -16 -5 38 -13 -17 -8 -11 -5 -6 -2 -4 -6 7 -6 8 -3 -4 -2 -1 2 0 -1
-1 -2 -2 -2 -1 -1 -1 -0 -2 -2 -1 0 1 0 -3 1 -10 1 -2 -1 -3 -4 -5 -9 -9 -6 30 -17 -5 8 12 8 -6 -7 -5 9 29 -3 -3 -1 -3 2 2 -2 -3
-2 -1 -2 -2 -2 -2 -1 1 -0 -1 -2 -1 4 1 10 -4 -8 3 -6 -5 -2 -2 -6 -8 -16 26 -7 -15 69 -39 27 -7 -5 -7 -7 12 4 -2 -3 -2 -3 -1 -2 1 -5
-0 -1 -1 -2 -2 -2 -1 -1 -2 1 -1 -1 4 2 -9 -10 1 2 -5 7 -6 2 -10 -13 -3 50 125 -33 11 14 5 -5 20 -4 -6 -16 6 -2 -5 2 -4 -1 -1 2 -2
-2 -1 -2 -2 -1 -2 -0 2 3 1 -2 -4 13 7 7 22 -4 -0 -7 -5 0 6 -11 -13 60 -48 35 -13 -5 -16 -35 14 -0 -9 4 4 16 -9 -2 -0 -4 -1 -2 -0 11
-2 -1 -2 -4 -0 -1 -0 1 -4 -6 -5 -2 -5 5 -8 2 0 1 -6 -2 -1 -3 -5 39 4 41 -10 -12 -1 27 25 5 -13 -5 15 -19 12 -5 -2 -1 2 -2 -3 -2 -5
-3 -1 -1 -5 -2 -1 -0 -3 1 2 -4 -2 -3 -1 -0 -0 -2 5 -8 -11 -2 2 -5 29 23 -14 -14 -1 20 46 20 -5 -2 -5 -9 13 -8 6 -1 1 4 1 2 -0 0
-4 -2 -0 -4 -3 -3 5 -5 0 1 -1 -6 -13 -15 -0 -3 6 10 -14 -13 27 -6 12 -10 23 -5 -7 -0 33 -15 -11 -14 -11 24 15 -16 10 -1 -1 2 -1 3 -1 3 -3
-3 -4 -2 -3 -4 4 -6 2 2 3 13 11 -7 9 -0 -20 2 4 -15 21 5 -6 29 -28 -8 -9 -17 29 -22 8 -13 -6 -16 19 5 -5 -15 4 -4 2 -3 -3 11 -3 7
-2 -3 -0 -3 -3 1 2 2 0 4 -4 -5 4 -10 9 -3 26 1 -3 10 -8 -2 1 17 -22 -5 45 -19 -14 -15 1 -2 19 -46 -7 -12 -10 9 11 -4 -0 2 -8 -1 13
-1 -1 -1 -3 5 -7 -0 6 3 10 11 4 -13 -1 8 -11 23 8 -1 -5 -3 13 12 -10 3 -11 -17 11 -20 14 48 -1 -21 11 6 8 -11 3 -9 15 -2 2 -2 -2 -0
-5 -2 0 1 -5 5 4 5 17 -28 -7 10 -8 5 -9 -3 11 24 -2 6 -3 1 8 -6 23 4 -14 -15 40 21 31 10 -7 -2 3 4 10 23 1 -3 -8 1 1 -0 2
-2 -5 0 -2 -2 -0 6 2 -28 -7 27 -6 12 4 5 4 -2 3 4 -5 -8 -8 11 3 -2 -17 17 0 -10 2 16 7 3 -15 3 -2 -1 -8 -2 -2 -4 6 -0 2 -6
-1 -2 -5 0 -1 4 4 -14 29 3 8 4 10 -9 -3 -3 6 2 -2 -10 7 -13 -7 22 15 17 11 -11 -8 25 -34 23 -14 -1 3 -1 14 11 17 -5 -2 -5 9 -5 -0
-3 -2 -6 2 6 -1 -14 -15 39 -12 -16 -2 -1 2 -5 -3 -8 -15 2 5 -2 -9 -0 15 19 1 9 -19 10 3 1 -33 39 13 -5 -2 15 -17 -15 12 22 -2 6 16 -5
-4 20 0 2 -9 -3 -12 -8 -15 17 -9 -10 -6 27 1 -2 -13 3 9 9 -0 1 -15 -29 19 -7 -28 -10 -32 39 9 -8 3 -21 -9 3 18 0 15 3 -8 -9 -9 -8 3
-5 44 1 3 4 -1 -10 31 -19 15 -0 -9 -7 -6 9 4 6 14 11 -10 -4 11 -16 -21 -18 6 27 8 -7 -8 -16 14 83 44 -11 9 24 18 -4 -4 -4 -0 -3 -2 1
-1 13 -1 -4 18 29 -7 5 -7 3 31 -1 18 -10 14 8 6 -14 11 23 -16 -4 -9 7 -3 11 -20 -25 -5 -4 11 -11 9 -0 -13 18 -9 3 -8 2 -2 1 2 -0 1
-2 24 12 -6 -3 -9 28 -2 7 3 1 -7 -9 -4 -16 4 1 6 16 -15 -11 11 -11 -9 -5 20 -45 25 25 -10 -9 -2 -2 -5 29 5 12 13 -10 4 3 1 1 3 2
-4 -3 6 22 -3 1 9 18 5 15 3 4 5 4 14 9 -18 -12 -9 -6 -14 2 -3 -13 -10 19 23 -15 -3 -1 6 -8 -10 5 -4 3 14 -12 -8 1 2 1 0 -1 -1
-7 3 2 17 3 -6 12 14 6 28 -5 16 23 -7 -2 21 2 -10 62 27 -27 -16 -7 2 -1 6 -8 12 -6 3 4 -4 6 -10 8 7 36 1 -6 2 1 1 0 0 -1
Height
3154 3155 3154 3155 3156 3157 3157 3158 3160 3162 3164 3165 3167 3170 3172 3174 3176 3177 3178 3179 3179 3179 3178 3177 3177 3176 3177 3176 3170 3159 3166 3169 3172 3174 3177 3177 3177 3177 3177 3179 3178 3179 3179 3177 3177
3152 3153 3153 3153 3154 3154 3155 3156 3158 3160 3163 3164 3166 3169 3171 3174 3176 3177 3178 3179 3180 3180 3179 3179 3182 3180 3176 3172 3171 3166 3169 3176 3177 3177 3178 3178 3179 3179 3181 3180 3180 3179 3178 3178 3179
3150 3150 3150 3151 3151 3152 3153 3154 3156 3159 3161 3163 3165 3167 3170 3173 3177 3179 3178 3180 3181 3181 3180 3181 3182 3180 3176 3171 3173 3175 3176 3180 3180 3180 3180 3180 3180 3181 3182 3182 3183 3181 3180 3181 3182
3147 3148 3148 3148 3149 3150 3151 3153 3155 3157 3160 3162 3163 3166 3169 3173 3180 3176 3179 3180 3181 3181 3181 3184 3183 3180 3178 3175 3178 3170 3181 3182 3182 3182 3182 3182 3181 3183 3183 3184 3184 3184 3183 3184 3186
3144 3144 3145 3146 3146 3148 3149 3151 3153 3155 3158 3160 3162 3165 3168 3172 3175 3174 3178 3180 3182 3182 3182 3185 3183 3181 3178 3180 3181 3181 3183 3184 3184 3184 3184 3183 3184 3183 3184 3185 3185 3186 3186 3188 3190
3141 3141 3142 3143 3144 3145 3146 3149 3151 3153 3156 3159 3161 3164 3167 3171 3171 3173 3178 3180 3182 3183 3185 3184 3184 3182 3181 3182 3180 3183 3184 3185 3186 3186 3185 3185 3184 3185 3186 3186 3187 3187 3189 3191 3192
3138 3138 3139 3140 3141 3142 3144 3146 3149 3151 3154 3157 3160 3162 3165 3170 3169 3173 3177 3180 3182 3184 3186 3185 3183 3181 3180 3181 3181 3182 3184 3185 3186 3186 3186 3185 3185 3186 3186 3187 3188 3190 3192 3193 3194
3135 3135 3136 3137 3138 3140 3142 3144 3146 3149 3152 3156 3158 3161 3163 3164 3167 3171 3176 3180 3182 3183 3185 3184 3182 3181 3180 3179 3180 3181 3181 3183 3186 3186 3184 3175 3184 3186 3188 3188 3190 3192 3193 3194 3195
3131 3132 3133 3134 3136 3137 3139 3142 3144 3147 3150 3154 3157 3159 3164 3162 3166 3171 3175 3180 3182 3184 3184 3183 3181 3181 3178 3164 3175 3176 3177 3181 3184 3185 3185 3185 3186 3188 3189 3190 3191 3192 3193 3195 3194
3127 3128 3129 3131 3133 3134 3137 3139 3142 3145 3149 3152 3154 3160 3159 3161 3165 3169 3174 3180 3183 3185 3185 3183 3180 3179 3176 3178 3176 3175 3177 3179 3181 3185 3185 3186 3187 3188 3189 3191 3192 3193 3194 3195 3195
3123 3124 3127 3128 3130 3132 3136 3139 3145 3147 3145 3150 3155 3156 3158 3162 3161 3167 3171 3178 3182 3184 3183 3181 3181 3182 3179 3179 3179 3177 3178 3177 3182 3183 3183 3184 3185 3187 3189 3191 3192 3193 3194 3196 3198
3120 3121 3124 3125 3127 3129 3133 3136 3137 3140 3143 3145 3146 3152 3153 3158 3161 3167 3171 3177 3180 3182 3181 3181 3180 3181 3181 3181 3179 3177 3177 3178 3182 3182 3181 3184 3184 3186 3188 3190 3192 3193 3195 3196 3197
3117 3118 3120 3122 3125 3127 3130 3132 3135 3137 3141 3144 3144 3147 3151 3154 3160 3165 3169 3174 3178 3180 3179 3177 3181 3180 3181 3180 3181 3179 3176 3179 3180 3180 3181 3181 3184 3186 3188 3190 3192 3193 3195 3196 3197
3114 3115 3117 3119 3124 3124 3129 3130 3133 3136 3142 3141 3140 3144 3150 3153 3159 3164 3167 3174 3176 3178 3178 3179 3179 3181 3182 3180 3181 3181 3179 3179 3176 3171 3175 3178 3182 3187 3188 3190 3191 3193 3194 3196 3197
3110 3112 3113 3116 3119 3123 3124 3129 3133 3135 3135 3133 3136 3144 3145 3151 3157 3160 3165 3171 3173 3175 3178 3177 3178 3181 3181 3179 3180 3180 3177 3175 3173 3170 3171 3173 3176 3187 3189 3190 3191 3191 3194 3196 3197
3105 3107 3109 3112 3115 3119 3123 3128 3132 3138 3125 3125 3129 3136 3143 3148 3155 3159 3163 3168 3172 3174 3175 3175 3178 3180 3180 3179 3179 3176 3175 3172 3169 3171 3168 3171 3172 3181 3184 3188 3190 3192 3193 3195 3196
3100 3102 3105 3107 3112 3113 3120 3127 3133 3123 3120 3123 3127 3133 3139 3144 3150 3155 3159 3163 3166 3169 3171 3174 3175 3178 3179 3178 3176 3173 3173 3172 3178 3162 3168 3172 3178 3180 3187 3188 3190 3192 3193 3195 3196
3095 3098 3100 3103 3106 3113 3118 3125 3122 3116 3115 3118 3123 3131 3135 3140 3146 3151 3156 3159 3163 3166 3167 3171 3173 3175 3176 3175 3172 3169 3167 3162 3170 3166 3167 3172 3176 3182 3187 3190 3192 3193 3194 3195 3195
3092 3094 3096 3099 3104 3109 3115 3118 3113 3111 3113 3116 3121 3126 3131 3136 3142 3147 3151 3154 3159 3162 3163 3165 3167 3171 3174 3175 3174 3168 3166 3164 3161 3162 3164 3172 3180 3185 3188 3190 3192 3193 3195 3195 3196
3090 3092 3094 3097 3101 3107 3112 3110 3110 3106 3109 3114 3116 3121 3124 3131 3137 3141 3146 3150 3155 3159 3160 3161 3164 3166 3171 3175 3174 3173 3169 3173 3167 3163 3164 3175 3178 3183 3187 3190 3192 3194 3195 3196 3197
3090 3093 3094 3095 3099 3104 3107 3104 3108 3108 3110 3115 3115 3119 3122 3127 3134 3138 3142 3147 3151 3156 3159 3159 3161 3167 3170 3172 3169 3174 3173 3173 3165 3161 3163 3165 3179 3186 3189 3190 3191 3193 3195 3196 3197
3088 3093 3091 3093 3099 3103 3104 3103 3107 3109 3109 3113 3111 3117 3120 3125 3132 3135 3138 3143 3147 3153 3157 3158 3157 3161 3167 3168 3169 3166 3167 3169 3171 3173 3167 3166 3181 3186 3189 3191 3192 3193 3195 3196 3197
3087 3092 3088 3091 3096 3099 3102 3102 3105 3108 3110 3112 3113 3113 3118 3123 3130 3133 3136 3141 3145 3150 3154 3157 3155 3157 3163 3168 3170 3169 3167 3165 3162 3163 3171 3168 3180 3185 3189 3190 3192 3194 3193 3193 3194
3085 3090 3089 3088 3092 3095 3099 3100 3104 3105 3107 3110 3113 3116 3117 3120 3126 3131 3134 3138 3143 3148 3153 3157 3152 3151 3155 3161 3164 3168 3167 3167 3165 3166 3170 3172 3180 3184 3189 3191 3192 3192 3192 3192 3193
3083 3085 3085 3088 3090 3094 3096 3099 3101 3103 3105 3109 3112 3116 3119 3121 3124 3128 3132 3137 3141 3145 3150 3154 3152 3151 3161 3158 3160 3164 3168 3170 3168 3171 3168 3170 3176 3181 3187 3190 3190 3191 3190 3190 3191
3079 3082 3085 3084 3088 3093 3093 3094 3098 3102 3104 3108 3110 3113 3115 3120 3123 3127 3130 3133 3138 3143 3147 3152 3153 3153 3156 3160 3163 3164 3166 3170 3172 3172 3172 3174 3177 3181 3185 3187 3189 3189 3188 3188 3188
3073 3078 3080 3084 3088 3090 3091 3094 3097 3100 3104 3104 3107 3111 3116 3114 3113 3117 3126 3131 3135 3139 3144 3150 3152 3155 3156 3160 3164 3166 3165 3169 3171 3174 3175 3177 3177 3180 3183 3187 3188 3187 3186 3186 3187